Location: *
(45.9500°N, 9.0833°E)
Time: 05:44:10
(UTC+00:00)

Lacrosse 4 Rocket - Pass Details

Date: 03 March 2021
Orbit: 537 x 620 km, 68.0° (Epoch: 18 April)

Event Time Altitude Azimuth Distance (km) Brightness Sun altitude
Rises 19:09:47 0° 196° (SSW) 2,813 5.0 -21.0°
Reaches altitude 10° 19:12:01 10° 191° (SSW) 1,929 4.1 -21.3°
Enters shadow 19:14:23 30° 176° (S) 1,086 2.6 -21.7°
